Regional Weather Roundup
Issued by NWS

Home | Current Version | Previous Version | Graphics & Text | Print | Product List | Glossary On
Versions: 1 2 3 4 5 6 7 8 9 10 11 12 13 14 15 16 17 18 19 20 21 22 23 24 25 26 27 28 29 30 31 32 33 34 35 36 37 38 39 40 41 42 43 44 45 46 47 48 49 50
000
ASUS43 KMKX 210211
RWRWI

WISCONSIN REGIONAL WEATHER ROUNDUP
NATIONAL WEATHER SERVICE MILWAUKEE/SULLIVAN WI
800 PM CST SAT DEC 20 2014

NOTE: "FAIR" INDICATES FEW OR NO CLOUDS BELOW 12,000 FEET WITH NO
SIGNIFICANT WEATHER AND/OR OBSTRUCTIONS TO VISIBILITY.

WIZ001-002-006>008-014>016-023>028-210300-
NORTHWEST WISCONSIN

CITY           SKY/WX    TMP DP  RH WIND       PRES   REMARKS
SUPERIOR ARPT  CLOUDY    32  28  83 SW8       30.09F WCI  25
ASHLAND        CLOUDY    31  26  82 S9        30.13S WCI  23
HAYWARD        CLOUDY    30  25  81 S7        30.11F HAZE    WCI  23
SIREN          CLOUDY    31  27  84 S8        30.10F WCI  24
CUMBERLAND     CLOUDY    30  28  93 S9        30.10F FOG     WCI  22
RICE LAKE      CLOUDY    31  28  86 S10       30.14S FOG     WCI  22
CHETEK         CLOUDY    31  28  88 SE8       30.13F WCI  23
LADYSMITH      CLOUDY    31  28  91 S6        30.15S FOG     WCI  25
EAU CLAIRE     CLOUDY    31  26  82 S9        30.14F WCI  23
MENOMONIE      CLOUDY    32  29  89 SE8       30.14F FOG     WCI  24
NEW RICHMOND   CLOUDY    31  30  94 S7        30.11F FOG     WCI  24
OSCEOLA        CLOUDY    32  31  97 SE10      30.13F WCI  24
$$

WIZ003>005-009-010-017-018-210300-
NORTH CENTRAL WISCONSIN

CITY           SKY/WX    TMP DP  RH WIND       PRES   REMARKS
MANITOWISH WTR CLOUDY    27  26  99 S8        30.11F FOG     WCI  18
ARBOR VITAE    CLOUDY    29  27  92 S5        30.12F FOG     WCI  24
WOODRUFF       CLOUDY    29  27  92 S5        30.12F FOG     WCI  24
RHINELANDER    CLOUDY    26  24  92 S6        30.14F WCI  19
EAGLE RIVER    CLOUDY    27  27  98 S6        30.12F FOG     WCI  21
LAND O LAKES   CLOUDY    28  28  98 S5        30.12F WCI  23
PHILLIPS       CLOUDY    28  26  92 S10       30.12S WCI  18
TOMAHAWK       CLOUDY    27  25  91 CALM      30.14F FOG
MEDFORD        CLOUDY    28  26  91 S9        30.14S FOG     WCI  19
MERRILL        CLOUDY    28  26  91 S3        30.16F
$$

WIZ029-030-035-036-043>047-210300-
CENTRAL WISCONSIN

CITY           SKY/WX    TMP DP  RH WIND       PRES   REMARKS
WAUSAU         CLOUDY    29  24  82 S7        30.16S WCI  22
MOSINEE        CLOUDY    28  27  93 SE7       30.18F WCI  21
MARSHFIELD     CLOUDY    29  25  85 S7        30.16F WCI  22
STEVENS POINT  CLOUDY    28  25  89 S6        30.19F WCI  21
WAUPACA        CLOUDY    30  27  88 SE3       30.22F FOG
WAUTOMA        CLOUDY    30  28  92 S3        30.22F
WISC RAPIDS    CLOUDY    30  24  78 S5        30.20F WCI  25
CAMP DOUGLAS   PTCLDY    29  29 100 SE7       30.19F WCI  22
$$

WIZ011>013-019>022-031-037>040-048>050-210300-
NORTHEAST WISCONSIN

CITY           SKY/WX    TMP DP  RH WIND       PRES   REMARKS
ANTIGO         CLOUDY    26  24  93 S7        30.16F WCI  18
SHAWANO        CLOUDY    30  25  81 S3        30.23S
OCONTO         CLOUDY    28  27  96 CALM      30.23F
STURGEON BAY   CLOUDY    27  21  80 CALM      30.24F
GREEN BAY      CLOUDY    30  26  85 CALM      30.23F FOG
MANITOWOC      CLOUDY    30  28  92 CALM      30.23F
APPLETON       CLOUDY    27  27 100 VRB3      30.23S FOG
CLINTONVILLE   CLOUDY    28  27  93 S3        30.22F
OSHKOSH        MOCLDY    24  22  91 CALM      30.22F FOG
$$

WIZ032>034-041-042-053>061-210300-
SOUTHWEST WISCONSIN

CITY           SKY/WX    TMP DP  RH WIND       PRES   REMARKS
LA CROSSE      CLOUDY    33  28  81 SE8       30.18F WCI  26
SPARTA         CLOUDY    31  27  84 S6        30.19S FOG     WCI  25
VIROQUA        CLOUDY    29  29 100 SE7       30.16F WCI  22
BOSCOBEL       CLOUDY    33  26  75 CALM      30.21S
PRAIRIE DU CHI CLOUDY    32  27  82 SE3       30.20S HAZE
PLATTEVILLE    CLOUDY    31  27  86 CALM      30.20S
$$

WIZ056-057-062-063-064-067-068-210300-
SOUTH CENTRAL WISCONSIN

CITY           SKY/WX    TMP DP  RH WIND       PRES   REMARKS
REEDSBURG      CLOUDY    29  27  90 CALM      30.19F
BARABOO/DELLS  CLOUDY    29  26  87 S5        30.20S FOG     WCI  24
LONE ROCK      CLOUDY    34  26  72 E3        30.21F
MINERAL POINT  CLOUDY    32  28  86 SE8       30.18F WCI  25
MADISON        CLOUDY    30  26  85 S6        30.21F WCI  24
MIDDLETON      CLOUDY    31  28  86 S6        30.22S WCI  26
WATERTOWN      CLOUDY    29  29  98 CALM      30.22F FOG
MONROE         CLOUDY    30  28  93 SE7       30.20S WCI  23
JANESVILLE     CLOUDY    32  27  80 SE3       30.22F
$$

WIZ051-052-058>065-066-070>072-210300-
SOUTHEAST WISCONSIN

CITY           SKY/WX    TMP DP  RH WIND       PRES   REMARKS
MILWAUKEE      CLOUDY    31  24  75 S6        30.24F WCI  25
WAUKESHA       CLOUDY    28  25  86 CALM      30.24F
MILWAUKEE/TIMM CLOUDY    30  25  80 CALM      30.25F
RACINE         CLOUDY    32  25  75 CALM      30.26F
BURLINGTON     CLOUDY    29  26  88 CALM      30.23F
KENOSHA        CLOUDY    31  25  78 S3        30.24F
FOND DU LAC    CLOUDY    30  25  81 S5        30.22F WCI  25
SHEBOYGAN      CLOUDY    29  26  89 SW3       30.23F
WEST BEND      CLOUDY    30  25  80 CALM      30.22F
JUNEAU         CLOUDY    28  26  92 SE6       30.23F FOG     WCI  22
$$

LSZ147-162-210300-
LAKE SUPERIOR

STATION/POSITION TIME  TEMP    WIND        PRES    WAVE
                       AIR SEA DIR/SP/G            HT/PER
                 (UTC) (F)     (DEG/KT/KT) (MB)    (FT/S)
DEVILS ISLAND    0200   32     180/  6/  9 1020.8F
PORT WING        0100   32     170/  4/  7 1020.0
SAXON HARBOR     0100   33      CALM  /  6 1020.3F
$$

LMZ867-665-643>646-210300-
LAKE MICHIGAN

STATION/POSITION TIME  TEMP    WIND        PRES    WAVE
                       AIR SEA DIR/SP/G            HT/PER
                 (UTC) (F)     (DEG/KT/KT) (MB)    (FT/S)
CHAMBERS ISLAND  0100   27        CALM     1024.0S
NORTHPORT PIER   0100   29      CALM  /  1 1023.7S
ALGOMA LAKESHORE 0114             CALM       N/A
KEWAUNEE LAKESHO 0100   26     310/  2/  3 1023.0R
SHEBOYGAN LAKESH 0200   31 34  220/  5/  6 1025.0F
PORT WASHINGTON  0140   31     260/  3/  4 1024.7S
MILWAUKEE LAKESH 0100   32     240/  5/  6   N/A
KENOSHA   LAKESH 0200   32     200/  3/  5 1024.0F
$$

TC  - TEMPERATURE IN CELSIUS
VSB - VISIBILITY IN STATUTE MILES
WCI - WIND CHILL INDEX
HX  - HEAT INDEX



USA.gov is the U.S. government's official web portal to all federal, state and local government web resources and services.